www.pogodaiklimat.ru

Погода и климат >> Архив погоды >> Норвегия >> Йомфрулянд


ПОГОДА в Йомфрулянде

  • Прогноз погоды в Йомфрулянде
  • Монитор погоды в Йомфрулянде

АРХИВ ПОГОДЫ в Йомфрулянде

Время (UTC), дата Ветер
(напр.,м/с)
 
Видим.   Явления Облачность Т
(С)
Тd
(С)
f
(%)
Тe
(С)
Тes
(С)
Комфортность P
(гПа)
Po
(гПа)
Тmin
(С)
Tmax
(С)
R
(мм)
R24
(мм)
S
(см)
13 18.08 Ю 6-8
{8}
н/о н/о +17.9 +15.0 83 +17 +17 1002.1 1001.5
14 18.08 Ю 5-7
{8}
н/о н/о +17.3 +15.1 87 +17 +17 1002.0 1001.4
15 18.08 Ю 4-6
{7}
н/о н/о +16.9 +15.1 89 +16 +16 1001.6 1001.1
16 18.08 Ю 3-5
{7}
н/о н/о +16.9 +15.4 91 +17 +17 1001.1 1000.5
17 18.08 Ю 4-6
{6}
н/о н/о +16.7 +16.1 96 +16 +16 1000.6 1000.0
18 18.08 Ю 7-9
{9}
н/о н/о +16.4 +15.3 93 +15 +15 1000.3 999.7 +14.1 +18.2
19 18.08 ЮЗ 11-12
{13}
н/о н/о +15.2 +14.2 94 +13 +13 1000.2 999.6
20 18.08 З 6-7
{12}
н/о н/о +13.9 +13.4 97 +12 +12 1001.0 1000.4
21 18.08 З 3-5
{6}
н/о н/о +14.1 +13.0 93 +13 +13 1000.9 1000.3
22 18.08 ЮЗ 5-6
{6}
н/о н/о +14.7 +13.4 92 +13 +13 1000.7 1000.1
23 18.08 ЮЗ 4-4
{6}
н/о н/о +14.7 +14.2 97 +13 +13 1000.7 1000.1
00 19.08 З 3-5
{13}
н/о н/о +14.4 +14 +14 1001.0 1000.4
01 19.08 З 4-5
{5}
н/о н/о +14.0 +13 +13 1001.4 1000.8
02 19.08 ЮЗ 5-6
{6}
н/о н/о +14.0 +13 +13 1001.3 1000.7
03 19.08 З 3-3
{7}
н/о н/о +13.3 +13 +13 1001.5 1000.9
04 19.08 ЮЗ 2-3
{3}
н/о н/о +14.0 +14 +14 1001.7 1001.1
05 19.08 СЗ 1-1
{4}
н/о н/о +13.7 +15 +15 1001.7 1001.1
06 19.08 ЮЗ 14-24
{24}
н/о н/о +14.1 +14.1 100 +11 +11 1001.7 1001.1 +13.1 +17.1
07 19.08 ЮЗ 11-13
{15}
н/о н/о +16.1 +15.1 94 +14 +14 1001.9 1001.3
08 19.08 ЮЗ 9-11
{12}
н/о н/о +16.5 +15.0 91 +15 +15 1002.4 1001.8
09 19.08 ЮЗ 9-11
{11}
н/о н/о +17.1 +15.1 88 +16 +16 1002.6 1002.0
10 19.08 ЮЗ 7-9
{12}
н/о н/о +16.6 +14.1 85 +15 +15 1003.2 1002.6
11 19.08 ЮЗ 11-14
{14}
н/о н/о +17.7 +14.4 81 +16 +16 1003.1 1002.5
12 19.08 ЮЗ 12-14
{15}
н/о н/о +17.7 +14.8 83 +16 +16 1003.6 1003.0
13 19.08 ЮЗ 13-15
{15}
н/о н/о +17.2 +14.7 85 +15 +15 1004.1 1003.5
14 19.08 ЮЗ 12-15
{15}
н/о н/о +17.2 +14.8 86 +15 +15 1004.6 1004.0
15 19.08 ЮЗ 12-14
{17}
н/о н/о +17.5 +15.5 88 +16 +16 1004.9 1004.3
16 19.08 ЮЗ 12-14
{15}
н/о н/о +17.4 +15.2 87 +16 +16 1005.7 1005.1
17 19.08 ЮЗ 11-13
{14}
н/о н/о +17.2 +15.2 88 +16 +16 1006.1 1005.5
18 19.08 ЮЗ 12-14
{17}
н/о н/о +16.9 +15.6 92 +15 +15 1006.6 1006.0 +13.9 +17.9
19 19.08 ЮЗ 12-14
{14}
н/о н/о +16.6 +15.5 93 +15 +15 1007.2 1006.6
20 19.08 ЮЗ 11-12
{13}
н/о н/о +16.4 +14.8 90 +14 +14 1008.0 1007.4
21 19.08 ЮЗ 6-8
{12}
н/о н/о +15.7 +14.1 90 +14 +14 1008.5 1007.9
22 19.08 ЮЗ 7-8
{10}
н/о н/о +15.4 +14.3 93 +14 +14 1009.0 1008.4
23 19.08 ЮЗ 8-9
{9}
н/о н/о +14.8 +13.8 94 +13 +13 1009.0 1008.4
00 20.08 З 5-6
{14}
н/о н/о +14.4 +14.1 98 +13 +13 1009.5 1008.9
01 20.08 ЮЗ 7-9
{9}
н/о н/о +14.6 +14.0 96 +12 +12 1009.7 1009.1
02 20.08 ЮЗ 7-8
{9}
н/о н/о +14.3 +13.7 96 +12 +12 1009.9 1009.3
03 20.08 ЮЗ 7-8
{8}
н/о н/о +14.2 +13 +13 1010.4 1009.8
04 20.08 ЮЗ 5-7
{7}
н/о н/о +14.2 +13 +13 1011.0 1010.4
05 20.08 З 6-7
{8}
н/о н/о +14.0 +14.0 100 +12 +12 1011.5 1010.9
06 20.08 З 7-8
{9}
н/о н/о +14.6 +14.0 96 +12 +12 1011.9 1011.3 +13.8 +16.9
07 20.08 ЮЗ 7-8
{9}
н/о н/о +15.9 +14.4 91 +14 +14 1012.3 1011.7
08 20.08 ЮЗ 9-11
{11}
н/о н/о +16.5 +14.5 88 +15 +15 1012.7 1012.1
09 20.08 ЮЗ 9-11
{12}
н/о н/о +17.0 +13.5 80 +16 +16 1012.9 1012.3
10 20.08 ЮЗ 10-12
{12}
н/о н/о +16.8 +13.1 79 +15 +15 1013.3 1012.7
11 20.08 ЮЗ 11-12
{13}
н/о н/о +16.9 +13.4 80 +15 +15 1013.4 1012.8
12 20.08 ЮЗ 8-11
{14}
н/о н/о +15.5 +13.2 86 +14 +14 1014.3 1013.7
13 20.08 ЮЗ 9-11
{11}
н/о н/о +16.2 +14.6 90 +14 +14 1014.1 1013.5
14 20.08 ЮЗ 11-12
{13}
н/о н/о +17.2 +14.1 82 +16 +16 1014.0 1013.4
15 20.08 ЮЗ 9-12
{13}
н/о н/о +16.7 +14.5 87 +15 +15 1014.2 1013.6
16 20.08 ЮЗ 11-13
{13}
н/о н/о +17.1 +14.4 84 +15 +15 1014.3 1013.7
17 20.08 ЮЗ 11-13
{13}
н/о н/о +17.0 +14.5 85 +15 +15 1014.6 1014.0
18 20.08 ЮЗ 10-11
{13}
н/о н/о +16.7 +13.2 80 +15 +15 1015.2 1014.6 +14.6 +17.5
19 20.08 ЮЗ 9-11
{11}
н/о н/о +16.5 +13.2 81 +15 +15 1015.7 1015.1
20 20.08 ЮЗ 8-10
{10}
н/о н/о +15.8 +12.4 80 +14 +14 1016.2 1015.6
21 20.08 З 8-9
{11}
н/о н/о +15.0 +11.2 78 +13 +13 1016.5 1015.9
22 20.08 ЮЗ 7-8
{8}
н/о н/о +14.4 +11.6 83 +12 +12 1016.8 1016.2
23 20.08 ЮЗ 6-7
{8}
н/о н/о +13.7 +11.2 85 +12 +12 1016.9 1016.3
00 21.08 ЮЗ 6-6
{11}
н/о н/о +13.3 +10.8 85 +11 +11 1017.2 1016.6
01 21.08 З 4-5
{6}
н/о н/о +13.0 +10.7 86 +11 +11 1017.6 1017.0
02 21.08 З 4-5
{6}
н/о н/о +13.1 +11.0 87 +11 +11 1018.0 1017.4
03 21.08 З 3-4
{5}
н/о н/о +13.2 +10.6 84 +12 +12 1018.3 1017.7
04 21.08 З 2-3
{4}
н/о н/о +13.0 +10.4 84 +12 +12 1018.9 1018.3
05 21.08 З 2-3
{4}
н/о н/о +13.1 +10.1 82 +12 +12 1019.5 1018.9
06 21.08 З 3-3
{6}
н/о н/о +13.4 +8.5 72 +12 +12 1020.0 1019.4 +12.9 +16.8
07 21.08 З 2-4
{4}
н/о н/о +15.1 +9.0 67 +15 +15 1020.2 1019.6
08 21.08 СЗ 3-4
{5}
н/о н/о +16.7 +8.7 59 +17 +17 1020.4 1019.8
09 21.08 З 2-3
{4}
н/о н/о +17.7 +7.5 51 +18 +18 1020.6 1020.0
10 21.08 Ю 5-6
{6}
н/о н/о +18.0 +10.4 61 +18 +18 1020.7 1020.1
11 21.08 Ю 6-7
{7}
н/о н/о +17.7 +9.6 59 +17 +17 1020.8 1020.2
12 21.08 ЮЗ 7-8
{9}
н/о н/о +18.4 +10.3 59 +18 +18 1020.6 1020.0
13 21.08 ЮЗ 7-10
{10}
н/о н/о +18.8 +10.9 60 +19 +19 1020.7 1020.1
14 21.08 ЮЗ 8-10
{10}
н/о н/о +18.1 +11.4 65 +17 +17 1020.6 1020.0
15 21.08 ЮЗ 8-10
{10}
н/о н/о +18.2 +11.1 63 +18 +18 1020.5 1019.9
16 21.08 ЮЗ 7-9
{10}
н/о н/о +19.1 +9.9 55 +19 +19 1020.6 1020.0
17 21.08 З 8-9
{9}
н/о н/о +18.7 +7.8 49 +18 +18 1020.8 1020.2
18 21.08 ЮЗ 7-8
{10}
н/о н/о +17.8 +9.7 59 +17 +17 1021.0 1020.4 +13.4 +19.4
19 21.08 ЮЗ 9-10
{10}
н/о н/о +16.9 +9.6 62 +15 +15 1021.2 1020.6
20 21.08 З 9-10
{11}
н/о н/о +15.9 +9.6 66 +14 +14 1021.7 1021.1
21 21.08 З 8-10
{11}
н/о н/о +15.2 +9.6 69 +13 +13 1022.2 1021.6
22 21.08 З 7-8
{9}
н/о н/о +14.6 +9.0 69 +13 +13 1022.3 1021.7
23 21.08 З 5-6
{8}
н/о н/о +13.8 +9.5 75 +12 +12 1022.6 1022.0
00 22.08 З 4-5
{11}
н/о н/о +13.4 +9.8 79 +12 +12 1022.7 1022.1
01 22.08 ЮЗ 4-5
{6}
н/о н/о +13.7 +9.8 77 +12 +12 1022.7 1022.0
02 22.08 Ю 2-3
{4}
н/о н/о +12.9 +9.5 80 +12 +12 1022.4 1021.8
03 22.08 штиль 0-1
{2}
н/о н/о +12.6 +10.5 87 +12 +12 1021.9 1021.3
04 22.08 СВ 1-1
{1}
н/о н/о +11.7 +13 +13 1021.1 1020.5
05 22.08 -2
{2}
н/о н/о +12.7 1021.0 1020.4
06 22.08 СВ 1-1
{6}
н/о н/о +13.7 +15 +15 1020.9 1020.3 +11.6 +17.8
07 22.08 ЮЗ 4-4
{4}
н/о н/о +15.4 +15.4 100 +14 +14 1020.4 1019.8
08 22.08 ЮЗ 7-10
{10}
н/о н/о +16.5 +16.3 99 +15 +15 1019.9 1019.3
09 22.08 Ю 11-14
{15}
н/о н/о +16.0 +14 +14 1019.6 1019.0
10 22.08 ЮЗ 12-15
{16}
н/о н/о +16.0 +16.0 100 +14 +14 1019.2 1018.6
11 22.08 Ю 10-13
{15}
н/о н/о +16.1 +14 +14 1018.5 1017.9
12 22.08 Ю 12-16
{18}
н/о н/о +16.2 +14 +14 1017.4 1016.8
13 22.08 ЮЗ 13-16
{22}
н/о н/о +15.3 +13 +13 1016.6 1016.0
14 22.08 ЮЗ 15-18
{19}
н/о н/о +15.4 +14.9 97 +12 +12 1016.7 1016.1
15 22.08 ЮЗ 13-17
{18}
н/о н/о +16.2 +15.4 95 +14 +14 1017.1 1016.5
16 22.08 ЮЗ 12-15
{16}
н/о н/о +16.2 +14.9 92 +14 +14 1017.1 1016.5
17 22.08 ЮЗ 12-14
{15}
н/о н/о +16.2 +15.1 93 +14 +14 1017.1 1016.5
18 22.08 ЮЗ 10-13
{22}
н/о н/о +16.0 +14.5 91 +14 +14 1017.2 1016.6 +13.7 +17.0
19 22.08 ЮЗ 9-11
{13}
н/о н/о +15.8 +14.8 94 +14 +14 1017.8 1017.2
20 22.08 ЮЗ 9-12
{12}
н/о н/о +15.5 +13.0 85 +13 +13 1018.2 1017.6
21 22.08 ЮЗ 6-8
{11}
н/о н/о +14.8 +13.7 93 +13 +13 1018.2 1017.6
22 22.08 ЮЗ 6-8
{8}
н/о н/о +15.3 +15.1 99 +14 +14 1017.9 1017.3
23 22.08 ЮЗ 6-7
{7}
н/о н/о +15.0 +14 +14 1017.6 1017.0
00 23.08 ЮЗ 8-9
{13}
н/о н/о +15.7 +14 +14 1017.0 1016.4
01 23.08 ЮЗ 4-5
{9}
н/о н/о +15.7 +15 +15 1016.2 1015.6
02 23.08 ЮЗ 10-13
{13}
н/о н/о +16.3 +15 +15 1015.3 1014.7
03 23.08 ЮЗ 11-13
{15}
н/о н/о +16.6 +15 +15 1015.0 1014.4
04 23.08 ЮЗ 10-12
{13}
н/о н/о +16.5 +15 +15 1014.9 1014.3
05 23.08 ЮЗ 10-12
{12}
н/о н/о +16.6 +15 +15 1014.8 1014.2
06 23.08 ЮЗ 9-11
{15}
н/о н/о +16.7 +15 +15 1015.2 1014.6 +14.6 +16.7
07 23.08 ЮЗ 10-11
{12}
н/о н/о +16.8 +15 +15 1015.6 1015.0
08 23.08 ЮЗ 8-10
{10}
н/о н/о +17.1 +16 +16 1015.9 1015.3
09 23.08 ЮЗ 8-9
{10}
н/о н/о +17.6 +17 +17 1016.2 1015.6
10 23.08 ЮЗ 10-12
{12}
н/о н/о +18.2 +17 +17 1016.2 1015.6
11 23.08 ЮЗ 11-13
{13}
н/о н/о +18.2 +18.0 99 +17 +17 1016.7 1016.1
12 23.08 ЮЗ 9-11
{13}
н/о н/о +19.3 +17.1 87 +20 +20 1017.4 1016.8
13 23.08 ЮЗ 10-12
{12}
н/о н/о +18.6 +16.6 88 +18 +18 1017.7 1017.2
14 23.08 ЮЗ 11-13
{13}
н/о н/о +18.1 +16.4 90 +17 +17 1018.1 1017.5
15 23.08 ЮЗ 9-11
{13}
н/о н/о +18.7 +16.7 88 +19 +19 1018.7 1018.1
16 23.08 ЮЗ 9-10
{11}
н/о н/о +19.0 +16.4 85 +20 +20 1018.6 1018.0
17 23.08 ЮЗ 7-9
{10}
н/о н/о +18.4 +16.9 91 +18 +18 1019.1 1018.5
18 23.08 ЮЗ 7-8
{13}
н/о н/о +18.3 +16.3 88 +18 +18 1019.7 1019.1 +16.7 +19.6
19 23.08 ЮЗ 7-9
{9}
н/о н/о +17.4 +17 +17 1020.4 1019.8
20 23.08 ЮЗ 7-8
{9}
н/о н/о +17.3 +16 +16 1020.6 1020.0
21 23.08 ЮЗ 8-10
{11}
н/о н/о +17.1 +16 +16 1021.1 1020.5
22 23.08 ЮЗ 6-7
{10}
н/о н/о +16.9 +16.7 99 +16 +16 1021.4 1020.8
23 23.08 З 6-7
{8}
н/о н/о +16.5 +16.3 99 +15 +15 1021.6 1021.0
00 24.08 З 3-3
{11}
н/о н/о +16.0 +15.8 99 +15 +15 1022.1 1021.5
01 24.08 ЮЗ 3-3
{5}
н/о н/о +15.9 +15.7 99 +15 +15 1022.6 1022.0
02 24.08 З 4-5
{5}
н/о н/о +15.4 +15.4 100 +14 +14 1022.8 1022.2
03 24.08 З 4-5
{5}
н/о н/о +15.0 +14 +14 1022.9 1022.3
04 24.08 СЗ 2-3
{3}
н/о н/о +14.6 +14.6 100 +14 +14 1023.3 1022.7
05 24.08 З 2-2
{2}
н/о н/о +14.9 +14.7 99 +15 +15 1023.7 1023.0
06 24.08 З 1-2
{5}
н/о н/о +15.9 +14.9 94 +17 +17 1024.0 1023.4 +14.0 +18.4
07 24.08 СВ 1-2
{2}
н/о н/о +16.9 +15.1 89 +18 +18 1024.3 1023.7
08 24.08 Ю 2-3
{3}
н/о н/о +17.4 +14.3 82 +18 +18 1024.9 1024.3
09 24.08 Ю 1-2
{2}
н/о н/о +17.8 +15.3 85 +19 +19 1025.2 1024.6
10 24.08 Ю 3-4
{4}
н/о н/о +18.4 +15.8 85 +19 +19 1025.3 1024.7
11 24.08 ЮЗ 3-3
{4}
н/о н/о +18.7 +15.6 82 +20 +20 1025.2 1024.6
12 24.08 Ю 3-4
{4}
н/о н/о +20.3 +15.1 72 +23 +23 комфорт 1025.3 1024.7
13 24.08 Ю 3-4
{4}
н/о н/о +19.8 +16.6 82 +23 +23 комфорт 1025.2 1024.7
14 24.08 ЮЗ 4-5
{5}
н/о н/о +19.9 +17.5 86 +23 +23 комфорт 1025.2 1024.6
15 24.08 Ю 3-5
{5}
н/о н/о +19.3 +17.6 90 +22 +22 комфорт 1025.1 1024.5
16 24.08 Ю 4-5
{5}
н/о н/о +18.1 +17.9 99 +18 +18 1024.9 1024.3
17 24.08 Ю 3-5
{5}
н/о н/о +18.0 +18.0 100 +18 +18 1024.7 1024.1
18 24.08 Ю 3-4
{5}
н/о н/о +17.3 +17 +17 1024.7 1024.1 +15.8 +20.3
19 24.08 Ю 3-4
{5}
н/о н/о +16.9 +17 +17 1024.8 1024.2
20 24.08 Ю 3-5
{6}
н/о н/о +16.8 +17 +17 1024.8 1024.2
21 24.08 Ю 2-4
{4}
н/о н/о +16.4 +17 +17 1024.7 1024.1
22 24.08 ЮВ 1-2
{4}
н/о н/о +16.5 +18 +18 1024.9 1024.3
23 24.08 ЮЗ 1-2
{3}
н/о н/о +16.2 +17 +17 1025.2 1024.6
00 25.08 ЮЗ 3-3
{6}
н/о н/о +16.3 +16 +16 1025.1 1024.5
01 25.08 З 2-2
{3}
н/о н/о +15.4 +16 +16 1025.0 1024.4
02 25.08 СВ 1-2
{2}
н/о н/о +15.2 +16 +16 1024.9 1024.3
03 25.08 В 1-2
{2}
н/о н/о +14.9 +16 +16 1024.6 1024.0
04 25.08 ЮВ 1-1
{2}
н/о н/о +15.4 +16 +16 1024.6 1024.0
05 25.08 С 1-2
{2}
н/о н/о +15.8 +17 +17 1024.7 1024.1
06 25.08 С 1-2
{3}
н/о н/о +16.0 +17 +17 1024.8 1024.2 +14.5 +17.3
07 25.08 Ю 1-2
{2}
н/о н/о +16.6 +18 +18 1024.9 1024.3
08 25.08 СВ 1-2
{3}
н/о н/о +16.9 +18 +18 1025.2 1024.6
09 25.08 В 1-2
{3}
н/о н/о +18.2 +19 +19 1024.9 1024.3
10 25.08 Ю 3-4
{4}
н/о н/о +19.1 +17.8 92 +21 +21 комфорт 1024.8 1024.2
11 25.08 Ю 4-6
{6}
н/о н/о +19.2 +18.0 93 +21 +21 комфорт 1024.6 1024.0
12 25.08 Ю 3-5
{6}
н/о н/о +19.7 +18.2 91 +23 +23 комфорт 1024.5 1023.9

 

Местоположение метеостанции Йомфрулянд (Норвегия): широта 58.86 долгота 9.57 высота над уровнем моря 5 м.

В архиве по умолчанию представлена погода в Йомфрулянде за последнюю неделю. Архивные данные за месяц целиком и за предыдущие месяцы, начиная с января 2011 года, Вы можете получить, выбрав интересующий диапазон дат из раскрывающегося списка и нажав кнопку "Ввод!".


*Определитесь, кто Вы:
робот инопланетянин человек

Внимание! Время в таблицах - всемирное. Для получения местного времени необходимо прибавить поправку, которая равна 1 ч.

Смотрите также архив погоды в соседних городах и на ближайших метеорологических станциях:

Погода в Порсгрунне (Норвегия) (26 км)
Погода в Гьерстаде (Норвегия) (31 км)
Погода на Маяке Lyngor (Норвегия) (35 км)
Погода на Маяке Svenner (Норвегия) (35 км)
Погода на Маяке Ferder (Норвегия) (58 км)
Погода в Нелауге (Норвегия) (59 км)
Погода в Мелсоме (Норвегия) (61 км)
Погода во Гварве (Норвегия) (61 км)
Погода в Твейтсунде (Норвегия) (63 км)
Погода на Маяке Torungen (Норвегия) (68 км)

Пояснения к столбцам:

Ветер - указаны скорость ветра в м/с - средняя за 10 мин, порывы в срок и между сроками (в фигурных скобках) и направление, откуда дует ветер: С - северный, СВ - северо-восточный, В - восточный, ЮВ - юго-восточный, Ю - южный, ЮЗ - юго-западный, З - западный, СЗ - северо-западный.
Видимость - горизонтальная дальность видимости в метрах или километрах. При видимости от 1 до 10 км при отсутствии осадков обычно наблюдается дымка, при ухудшении видимости до 1 км и менее - туман. В сухую погоду видимость может ухудшаться дымом, пылью или мглою.
Явления - указаны атмосферные явления, наблюдавшиеся в срок или в последний час перед сроком; фигурными скобками обозначены явления, наблюдавшиеся между сроками (за 1-3 часа до срока); квадратными скобками обозначены град или гололедные отложения с указанием их диаметра в мм.
Облачность - указаны через наклонную черту общая и нижняя облачность в баллах и высота нижней границы облаков в метрах; квадратными скобками обозначены формы облаков: Ci - перистые, Cs - перисто-слоистые, Cc - перисто-кучевые, Ac - высококучевые, As - высокослоистые, Sc - слоисто-кучевые, Ns - слоисто-дождевые, Cu - кучевые, Cb - кучево-дождевые. Подробнее классификацию облаков см. в Атласе облаков (PDF).
T - Температура воздуха - температура, измеренная на высоте 2 м над землей.
Td - Температура точки росы - температура, при понижении до которой содержащийся в воздухе водяной пар достигнет насыщения.
f - Относительная влажность воздуха - влажноcть воздуха, измеренная на высоте 2 м над землей.
Te - Эффективная температура - температура, которую ощущает одетый по сезону человек в тени. Характеристика душности погоды. При расчете учитывается влияние влажности воздуха и скорости ветра на теплоощущения человека.
Tes - Эффективная температура на солнце - температура, которую ощущает человек, с поправкой на солнечный нагрев. Характеристика знойности погоды. Зависит от высоты солнца над горизонтом, облачности и скорости ветра. Ночью, в пасмурную погоду, а также при ветре 12 м/с и более поправка равна нулю.
P - Атмосферное давление - приведенное к уровню моря атмосферное давление.
Po - Атмосферное давление - измеренное на уровне метеостанции атмосферное давление.
Tmin - Минимальная температура - минимум температуры воздуха на высоте 2 м над землей.
Tmax - Максимальная температура - максимум температуры воздуха на высоте 2 м над землей.
R - Количество осадков - Количество выпавших осадков за период времени, мм. При наведении курсора мыши на число - период времени, за который выпало указанное количество осадков.
R24 - Количество осадков - Количество выпавших осадков за 24 часа, мм.
S - Снежный покров - Высота снежного покрова, см. При наведении курсора мыши на число - состояние снежного покрова и степень покрытия местности в баллах.